Weather History for Cullman Regional Airport, LA

Change the Weather History Date:

Wednesday, January 15, 2014

  Actual Average Record
Temperature  
Mean Temperature 34 °F -  
Max Temperature 44 °F - - ()
Min Temperature 23 °F - - ()
Degree Days  
Heating Degree Days 31    
Moisture  
Dew Point 19 °F    
Average Humidity 51    
Maximum Humidity 86    
Minimum Humidity 28    
Precipitation  
Precipitation 0.00 in - - ()
Sea Level Pressure  
Sea Level Pressure 30.09 in    
Wind  
Wind Speed 7 mph (NW)    
Max Wind Speed 13 mph    
Max Gust Speed 22 mph    
Visibility 10 miles    
Events Rain    
T = Trace of Precipitation, MM = Missing Value Source: NWS Daily Summary

Daily Weather History Graph

Daily Weather History Graph

Search for Another Location

Airport:

Trip Planner

Search our weather history database for the weather conditions in past years. The results will help you decide how hot, cold, wet, or windy it might be!

Date:

Astronomy

Jan. 15, 2014 Rise Set
Actual Time 6:53 AM CST 5:00 PM CST
Civil Twilight 6:26 AM CST 5:28 PM CST
Nautical Twilight 5:55 AM CST 5:58 PM CST
Astronomical Twilight 5:25 AM CST 6:29 PM CST
Moon 4:55 PM CST (1/15) 6:11 AM CST (1/15)
Length of Visible Light 11h 02m
Length of Day
10h 07m
Full, 100% of the Moon is Illuminated
Jan 15
Full
Jan 15
Full
Jan 23
Last Quarter
Jan 30
New
Feb 6
First Quarter

Hourly Weather History & Observations

Time (CST) Temp. Windchill Dew Point Humidity Pressure Visibility Wind Dir Wind Speed Gust Speed Precip Events Conditions
12:15 AM 44.6 °F 39.7 °F 33.6 °F 65% 30.02 in 10.0 mi NNW 9.2 mph - N/A   Mostly Cloudy
12:35 AM 44.2 °F 39.2 °F 33.8 °F 67% 30.03 in 10.0 mi NNW 9.2 mph - N/A   Mostly Cloudy
12:55 AM 43.7 °F 41.1 °F 34.3 °F 70% 30.03 in 10.0 mi NW 4.6 mph - N/A   Mostly Cloudy
1:15 AM 43.2 °F 37.4 °F 34.0 °F 70% 30.04 in 10.0 mi NW 10.4 mph 17.3 mph N/A Rain Light Rain
1:35 AM 42.3 °F 36.3 °F 33.8 °F 72% 30.05 in 10.0 mi NNW 10.4 mph - N/A   Drizzle
1:55 AM 40.8 °F 36.9 °F 33.8 °F 76% 30.05 in 10.0 mi NNW 5.8 mph - N/A Rain Light Rain
2:15 AM 40.1 °F 35.3 °F 33.8 °F 78% 30.05 in 10.0 mi NW 6.9 mph - N/A   Drizzle
2:35 AM 39.4 °F 35.2 °F 34.2 °F 82% 30.05 in 10.0 mi NNW 5.8 mph - N/A Rain Light Rain
2:55 AM 39.2 °F 35.9 °F 34.3 °F 83% 30.05 in 10.0 mi NW 4.6 mph - N/A Rain Light Rain
3:15 AM 38.8 °F 34.6 °F 35.1 °F 86% 30.05 in 10.0 mi NW 5.8 mph - N/A   Drizzle
3:35 AM 38.7 °F 32.9 °F 34.0 °F 83% 30.05 in 10.0 mi NNW 8.1 mph - N/A   Mostly Cloudy
3:55 AM 39.0 °F 34.0 °F 30.9 °F 73% 30.06 in 10.0 mi North 6.9 mph - N/A   Scattered Clouds
4:15 AM 39.0 °F 34.0 °F 29.7 °F 69% 30.05 in 10.0 mi North 6.9 mph - N/A   Scattered Clouds
4:35 AM 39.4 °F 33.2 °F 27.0 °F 61% 30.06 in 10.0 mi NNW 9.2 mph 21.9 mph N/A   Scattered Clouds
4:55 AM 39.4 °F 34.5 °F 24.1 °F 54% 30.06 in 10.0 mi NNW 6.9 mph - N/A   Clear
5:15 AM 39.4 °F 36.1 °F 23.5 °F 53% 30.08 in 10.0 mi NNW 4.6 mph - N/A   Clear
5:35 AM 39.0 °F 32.8 °F 20.7 °F 48% 30.07 in 10.0 mi NNW 9.2 mph - N/A   Clear
5:55 AM 38.5 °F 32.7 °F 18.5 °F 45% 30.08 in 10.0 mi NNW 8.1 mph - N/A   Clear
6:15 AM 38.1 °F 35.7 °F 19.6 °F 47% 30.08 in 10.0 mi NW 3.5 mph - N/A   Clear
6:35 AM 37.6 °F 34.0 °F 21.2 °F 52% 30.09 in 10.0 mi NNW 4.6 mph - N/A   Clear
6:55 AM 37.0 °F 32.4 °F 19.4 °F 49% 30.10 in 10.0 mi NNW 5.8 mph - N/A   Scattered Clouds
7:15 AM 36.5 °F 33.9 °F 18.5 °F 48% 30.10 in 10.0 mi NW 3.5 mph - N/A   Scattered Clouds
7:35 AM 36.1 °F 31.4 °F 18.9 °F 50% 30.11 in 10.0 mi WNW 5.8 mph - N/A   Clear
7:55 AM 36.0 °F 29.6 °F 18.1 °F 48% 30.11 in 10.0 mi NW 8.1 mph - N/A   Clear
8:15 AM 36.1 °F 29.9 °F 17.6 °F 47% 30.12 in 10.0 mi NW 8.1 mph - N/A   Clear
8:35 AM 36.5 °F 31.0 °F 17.8 °F 47% 30.12 in 10.0 mi NW 6.9 mph - N/A   Clear
8:55 AM 37.4 °F 31.4 °F 17.2 °F 44% 30.13 in 10.0 mi NW 8.1 mph 17.3 mph N/A   Clear
9:35 AM 38.8 °F 33.2 °F 16.9 °F 41% 30.13 in 10.0 mi NW 8.1 mph - N/A   Clear
9:55 AM 39.4 °F 35.2 °F 16.5 °F 40% 30.13 in 10.0 mi WNW 5.8 mph - N/A   Clear
10:15 AM 39.9 °F 34.5 °F 16.7 °F 39% 30.13 in 10.0 mi NNW 8.1 mph - N/A   Clear
10:35 AM 40.5 °F 35.1 °F 16.5 °F 38% 30.12 in 10.0 mi WNW 8.1 mph - N/A   Clear
10:55 AM 41.2 °F 36.0 °F 16.3 °F 37% 30.11 in 10.0 mi WNW 8.1 mph - N/A   Clear
11:15 AM 41.4 °F 38.4 °F 14.7 °F 34% 30.11 in 10.0 mi NW 4.6 mph - N/A   Clear
11:35 AM 41.5 °F 36.4 °F 10.0 °F 28% 30.10 in 10.0 mi NW 8.1 mph - N/A   Clear
11:55 AM 41.7 °F 35.2 °F 10.4 °F 28% 30.08 in 10.0 mi NW 11.5 mph 18.4 mph N/A   Clear
12:15 PM 41.2 °F 36.0 °F 10.9 °F 29% 30.07 in 10.0 mi WNW 8.1 mph - N/A   Clear
12:35 PM 41.9 °F 37.5 °F 14.2 °F 33% 30.06 in 10.0 mi NNW 6.9 mph 19.6 mph N/A   Clear
12:55 PM 41.9 °F 36.3 °F 13.6 °F 32% 30.06 in 10.0 mi NW 9.2 mph 17.3 mph N/A   Clear
1:15 PM 41.4 °F 35.7 °F 12.7 °F 31% 30.05 in 10.0 mi NW 9.2 mph 21.9 mph N/A   Clear
1:35 PM 41.2 °F 35.0 °F 13.1 °F 32% 30.05 in 10.0 mi NNW 10.4 mph 20.7 mph N/A   Clear
1:55 PM 41.4 °F 34.7 °F 14.0 °F 33% 30.05 in 10.0 mi WNW 11.5 mph 18.4 mph N/A   Scattered Clouds
2:15 PM 41.4 °F 35.2 °F 13.6 °F 32% 30.05 in 10.0 mi WNW 10.4 mph 20.7 mph N/A   Clear
2:35 PM 40.6 °F 33.4 °F 13.5 °F 33% 30.06 in 10.0 mi WNW 12.7 mph 17.3 mph N/A   Clear
2:55 PM 39.6 °F 32.5 °F 12.7 °F 33% 30.07 in 10.0 mi NW 11.5 mph 17.3 mph N/A   Clear
3:15 PM 38.3 °F 33.2 °F 12.7 °F 35% 30.07 in 10.0 mi WNW 6.9 mph - N/A   Clear
3:35 PM 37.6 °F 30.5 °F 11.7 °F 34% 30.08 in 10.0 mi WNW 10.4 mph 18.4 mph N/A   Clear
3:55 PM 37.9 °F 30.9 °F 11.3 °F 33% 30.08 in 10.0 mi WNW 10.4 mph 19.6 mph N/A   Scattered Clouds
4:15 PM 37.0 °F 31.0 °F 11.1 °F 34% 30.08 in 10.0 mi NNW 8.1 mph 16.1 mph N/A   Clear
4:35 PM 36.0 °F 30.3 °F 11.1 °F 36% 30.09 in 10.0 mi NNW 6.9 mph 17.3 mph N/A   Scattered Clouds
4:55 PM 35.2 °F 29.5 °F 11.5 °F 37% 30.09 in 10.0 mi NW 6.9 mph - N/A   Scattered Clouds
5:15 PM 34.2 °F 30.0 °F 11.5 °F 39% 30.10 in 10.0 mi NW 4.6 mph - N/A   Scattered Clouds
5:35 PM 33.4 °F 27.3 °F 11.5 °F 40% 30.11 in 10.0 mi NW 6.9 mph - N/A   Clear
5:55 PM 32.7 °F 29.6 °F 10.8 °F 40% 30.11 in 10.0 mi NW 3.5 mph - N/A   Clear
6:15 PM 32.2 °F 27.7 °F 11.1 °F 42% 30.12 in 10.0 mi NW 4.6 mph - N/A   Clear
6:35 PM 32.0 °F 27.5 °F 12.2 °F 44% 30.13 in 10.0 mi NW 4.6 mph - N/A   Clear
6:55 PM 31.5 °F 28.1 °F 13.5 °F 47% 30.13 in 10.0 mi NNW 3.5 mph - N/A   Clear
7:15 PM 30.6 °F 25.8 °F 14.0 °F 50% 30.13 in 10.0 mi NW 4.6 mph - N/A   Clear
7:35 PM 29.8 °F 26.3 °F 14.5 °F 53% 30.13 in 10.0 mi NW 3.5 mph - N/A   Clear
7:55 PM 29.3 °F 24.3 °F 14.7 °F 55% 30.13 in 10.0 mi NNW 4.6 mph - N/A   Clear
8:15 PM 29.1 °F 24.1 °F 14.9 °F 55% 30.14 in 10.0 mi NNW 4.6 mph - N/A   Clear
8:35 PM 28.8 °F 22.6 °F 15.4 °F 58% 30.14 in 10.0 mi NNW 5.8 mph - N/A   Clear
8:55 PM 28.2 °F 23.1 °F 15.6 °F 59% 30.14 in 10.0 mi NW 4.6 mph - N/A   Clear
9:15 PM 27.9 °F 24.0 °F 15.6 °F 60% 30.15 in 10.0 mi NW 3.5 mph - N/A   Clear
9:35 PM 27.5 °F 22.2 °F 15.8 °F 61% 30.15 in 10.0 mi NW 4.6 mph - N/A   Clear
9:55 PM 27.0 °F 23.0 °F 16.0 °F 63% 30.14 in 10.0 mi NNW 3.5 mph - N/A   Clear
10:15 PM 26.4 °F - 16.3 °F 66% 30.14 in 10.0 mi Calm Calm - N/A   Clear
10:35 PM 25.9 °F - 16.2 °F 67% 30.13 in 10.0 mi Calm Calm - N/A   Clear
10:55 PM 25.3 °F - 16.2 °F 68% 30.13 in 10.0 mi Calm Calm - N/A   Clear
11:15 PM 24.8 °F - 16.0 °F 69% 30.13 in 10.0 mi Calm Calm - N/A   Clear
11:35 PM 24.1 °F - 16.2 °F 72% 30.13 in 10.0 mi Calm Calm - N/A   Clear
11:55 PM 23.5 °F - 16.3 °F 74% 30.13 in 10.0 mi Calm Calm - N/A   Clear